Dewpoint
42 41 41 40 39 38 36 35 35 36 32 28 28 31 30 34 37 37 38 37 38 35
41 41 41 41 40 38 37 36 36 35 30 26 28 30 30 30 34 35 37 35 36 35
42 41 41 40 39 38 37 36 35 32 28 26 27 29 30 29 32 33 34 34 33 34
40 41 41 40 39 38 37 36 34 32 28 26 25 27 29 28 30 32 32 32 30 30
39 41 41 40 40 39 37 36 34 31 28 26 25 26 27 27 27 30 31 31 30 29
35 38 40 40 40 39 38 36 33 30 27 26 25 25 27 28 27 27 29 30 30 29
33 35 39 40 40 39 38 36 33 30 27 26 25 25 26 28 27 27 28 30 30 30
34 36 38 40 40 39 38 37 34 31 28 25 24 24 26 28 28 27 26 27 30 30
34 35 36 38 38 38 38 37 34 32 30 27 24 24 28 30 28 29 28 26 28 29
33 33 34 35 35 35 35 35 34 32 30 29 26 26 28 31 31 28 27 27 27 27
32 33 33 33 33 33 34 34 33 32 31 29 27 28 29 31 33 29 27 28 28 27
32 32 32 32 33 33 33 33 32 31 30 28 28 28 30 31 32 30 28 28 27 27
32 32 31 32 32 33 32 32 32 31 30 29 28 28 29 32 32 30 28 30 32 33
31 31 31 31 31 31 30 29 29 29 28 27 26 26 29 30 32 31 31 32 31 31
Wind_Speed
15 15 16 15 14 15 13 12 8 8 7 7 6 6 5 4 4 3 3 2 2 2
16 17 19 17 14 15 13 12 12 10 10 8 7 6 5 5 5 4 3 3 3 3
17 17 17 14 18 17 16 14 12 12 11 9 8 7 6 6 6 6 5 4 5 4
16 15 15 17 18 18 15 15 15 14 12 11 10 9 8 8 7 8 7 5 6 5
15 13 14 17 17 14 17 14 16 14 13 13 13 11 11 12 9 10 9 9 7 7
17 14 15 15 15 14 15 16 16 15 17 17 16 15 14 13 11 11 11 10 10 8
19 17 14 13 12 13 13 16 17 18 18 17 16 16 15 13 12 11 10 10 10 10
16 15 13 11 10 10 10 14 15 16 17 17 16 15 15 13 14 13 12 10 11 11
16 16 15 12 11 10 11 12 12 16 18 18 16 16 18 15 16 14 12 12 11 10
15 16 15 14 13 13 13 11 13 15 15 19 17 18 19 19 14 14 13 12 11 10
15 16 16 17 16 16 14 14 14 15 15 16 18 19 21 19 15 14 12 11 11 10
13 15 15 16 16 16 14 15 15 14 15 15 18 17 20 18 15 16 14 11 10 8
12 13 15 16 17 13 15 17 15 16 14 15 17 15 19 19 14 16 14 11 9 9
12 13 12 14 12 13 16 15 15 14 15 13 13 15 16 20 15 16 13 11 10 9
Wind_Direction
250 250 252 254 254 256 256 256 255 246 246 254 256 261 275 290 288 291 272 277 207 211
259 250 251 249 247 252 254 253 249 244 247 252 256 259 264 273 272 275 244 241 211 212
272 256 251 249 253 246 249 246 246 244 242 248 249 247 240 252 249 239 233 219 209 215
294 275 257 248 247 244 244 242 242 243 245 245 249 247 243 248 248 239 232 211 210 216
313 294 271 258 253 246 247 240 241 240 240 239 240 238 236 244 238 236 235 231 218 224
320 312 287 272 262 252 248 245 240 235 235 234 234 234 232 233 235 232 231 226 222 224
326 322 304 283 270 260 249 249 242 237 237 234 235 234 231 228 231 232 230 224 215 215
327 325 316 303 292 283 268 259 252 247 241 237 233 234 227 224 228 230 232 226 218 218
343 348 347 333 321 308 293 276 262 254 247 245 235 231 227 219 222 223 227 229 225 217
344 344 344 339 332 324 315 302 285 269 253 249 241 233 231 226 213 219 222 225 222 218
342 339 336 337 336 330 321 312 298 284 269 255 252 239 230 225 208 208 214 214 216 217
335 334 332 331 327 322 318 314 303 289 280 263 262 245 233 220 201 201 205 201 207 214
327 327 328 328 325 318 313 306 303 297 282 273 265 257 238 221 191 194 195 199 214 225
324 324 318 319 314 316 317 313 311 309 303 290 271 267 249 231 192 198 194 210 214 208